#timestamp,LO_Frequency,Hit,StdDev 
1547812815.2,286047001.5,N
1547812835.9,286047002.3,N
1547812855.7,286047001.4,N
1547812875.6,286047002.1,N
1547812895.4,286046999.4,N
1547812915.2,286046999.6,N
1547812935.1,286047002.4,N
1547812936.0,286047002.4,N
1547812955.8,286046998.9,N
1547812975.7,286046999.2,N
1547812995.5,286046996.9,N
1547813015.3,286046995.2,N
1547813035.2,286046995.5,N
1547813055.0,286046997.4,N
1547813055.9,286046997.4,N
1547813075.7,286046995.4,N
1547813095.6,286046999.0,N
1547813115.4,286047000.7,N
1547813135.3,286047000.1,N
1547813155.1,286046999.8,N
1547813156.0,286046999.8,N
1547813175.8,286046998.2,N
1547813195.7,286046996.7,N
1547813215.5,286046997.1,N
1547813235.3,286046997.4,N
1547813255.2,286047001.1,N
1547813275.0,286047000.3,N
1547813275.9,286047000.3,N
1547813295.8,286047000.3,N
1547813315.6,286047000.2,N
1547813335.4,286047000.2,N
1547813355.3,286047005.3,N
1547813375.1,286047005.8,N
1547813395.8,286047002.9,N
1547813415.7,286047004.4,N
1547813435.5,286047004.3,N
1547813455.4,286047000.5,N
1547813475.2,286047001.1,N
1547813495.0,286047001.4,N
1547813495.9,286047001.4,N
1547813515.8,286047003.8,N
1547813535.6,286047002.2,N
1547813555.4,286046999.8,N
1547813575.3,286047000.3,N
1547813595.1,286047001.0,N
1547813615.9,286047003.3,N
1547813635.7,286047002.1,N
1547813655.5,286047004.4,N
1547813675.4,286047001.9,N
1547813695.2,286047002.8,N
1547813715.0,286047000.8,N
1547813716.0,286047000.8,N
1547813735.8,286047002.1,N
1547813755.6,286047000.3,N
1547813775.5,286047005.3,N
1547813795.3,286047008.2,Y
1547813815.1,286047007.5,P
1547813835.9,286047005.6,N
1547813855.7,286047005.0,N
1547813875.6,286047006.3,Y
1547813895.4,286046998.6,P
1547813915.2,286046998.9,N
1547813935.1,286046996.7,N
1547813936.0,286046996.7,N
1547813955.8,286046997.6,N
1547813975.6,286046995.2,N
1547813995.5,286046990.2,Y
1547814015.3,286046994.4,P
1547814035.2,286046995.0,N
1547814055.0,286046996.4,N
1547814055.9,286046996.4,N
1547814075.7,286046994.6,Y
1547814095.6,286047001.2,P
1547814115.4,286047000.9,N
1547814135.3,286046999.8,N
1547814155.1,286046999.0,N
1547814156.0,286046999.0,N
1547814175.8,286046997.4,N
1547814195.7,286046997.9,N
1547814215.5,286046995.2,N
1547814235.3,286046997.5,N
1547814255.2,286046997.0,N
1547814275.0,286046997.1,N
1547814275.9,286046997.1,N
1547814295.8,286046997.5,N
1547814315.6,286046997.3,N
1547814335.4,286046996.5,N
1547814355.3,286047000.4,N
1547814375.1,286047002.8,N
1547814395.8,286046999.3,N
1547814415.7,286046998.1,N
1547814435.5,286047001.3,N
1547814455.4,286047003.4,N
1547814475.2,286047003.8,N
1547814495.0,286047001.9,N
1547814495.9,286047001.9,N
1547814515.8,286047002.3,N
1547814535.6,286047000.7,N
1547814555.4,286046999.7,N
1547814575.3,286047001.7,N
1547814595.1,286047002.3,N
1547814615.9,286047002.7,N
1547814635.7,286046999.0,N
1547814655.5,286046998.6,N
1547814675.4,286047001.9,N
1547814695.2,286047000.4,N
1547814715.0,286047000.0,N
1547814715.9,286047000.0,N
1547814735.8,286047000.9,N
1547814755.6,286046999.5,N
1547814775.5,286046997.0,N
1547814795.3,286046995.4,N
1547814815.1,286046996.3,N
1547814835.9,286046994.9,N
1547814855.7,286046997.8,N
1547814875.5,286046993.3,N
1547814895.4,286046994.7,N
1547814915.2,286046994.2,N
1547814935.1,286046996.8,N
1547814936.0,286046996.8,N
1547814955.8,286046996.2,N
1547814975.6,286046994.2,N
1547814995.5,286046994.9,N
1547815015.3,286046996.7,N
1547815035.1,286046996.5,N
1547815055.9,286046997.5,N
1547815075.7,286046996.5,N
1547815095.6,286046996.9,N
1547815115.4,286046996.1,N
1547815135.2,286046994.0,N
1547815155.1,286046999.6,N
1547815156.0,286046999.6,N
1547815175.8,286046999.9,N
1547815195.6,286046997.3,N
1547815215.5,286046997.1,N
1547815235.3,286046996.6,N
1547815255.2,286046998.7,N
1547815275.9,286046998.8,N
1547815295.7,286046997.3,N
1547815315.6,286046995.5,N
1547815335.4,286046997.5,N
1547815355.2,286047001.2,N
1547815375.1,286046999.1,N
1547815376.0,286046999.1,N
1547815395.8,286046999.2,N
1547815415.6,286046998.6,N
1547815435.5,286046998.9,N
1547815455.3,286046997.0,N
1547815475.2,286046996.5,N
1547815495.9,286046997.3,N
1547815515.7,286046994.9,Y
1547815535.6,286046998.4,P
1547815555.4,286046998.4,P
1547815575.2,286047000.6,N
1547815595.1,286047001.0,N
1547815596.0,286047001.0,N
1547815615.8,286046998.1,N
1547815635.7,286046998.9,N
1547815655.5,286046997.4,N
1547815675.3,286046999.6,N
1547815695.2,286046998.2,N
1547815715.0,286047000.5,N
1547815715.9,286047000.5,N
1547815735.7,286047000.5,N
1547815755.6,286047001.2,N
1547815775.4,286046999.8,N
1547815795.3,286047003.9,Y
1547815815.1,286047004.3,P
1547815835.8,286047002.1,N
1547815855.7,286047000.9,N
1547815875.5,286046998.1,N
1547815895.3,286047001.2,N
1547815915.2,286046999.4,N
1547815935.0,286046998.4,N
1547815935.9,286046998.4,N
1547815955.8,286046998.2,N
1547815975.6,286046998.4,N
1547815995.4,286046996.7,N
1547816015.3,286046996.7,N
1547816035.1,286046997.1,N
1547816055.8,286046999.5,N
1547816075.7,286046998.9,N
1547816095.5,286047000.8,N
1547816115.4,286047002.6,N
1547816135.2,286046998.1,N
1547816155.0,286046999.8,N
1547816155.9,286046999.8,N
1547816175.8,286047001.2,N
1547816195.6,286047000.8,N
1547816215.4,286046999.4,N
1547816235.3,286046999.3,N
1547816255.1,286047011.9,Y
1547816275.9,286047000.2,P
1547816295.7,286046998.1,P
1547816315.5,286046999.9,N
1547816335.4,286047000.2,N
1547816355.2,286046998.7,N
1547816375.0,286046998.2,N
1547816375.9,286046998.2,N
1547816395.8,286047003.7,Y
